Tracking 19170 objects as of 22-May-2018
HD Live streaming from Space Station
objects crossing your sky now

FENGYUN 1C DEB

Track FENGYUN 1C DEB now!
10-day predictions


NORAD ID: 30297
Int'l Code: 1999-025ZJ
Perigee: 575.0 km
Apogee: 1,351.4 km
Inclination: 98.8 °
Period: 104.2 minutes
Semi major axis: 7334 km
RCS: 0.0363 m2 (small)
Launch date: May 10, 1999
Source: People's Republic of China (PRC)
Launch site: Taiyaun Space Center, China (TSC)

Note: This is SATELLITE DEBRIS
aabbcc
Your satellite tracking list
Your tracking list is empty




NASA's NSSDC Master Catalog

Two Line Element Set (TLE):
1 30297U 99025ZJ  18141.70742402 +.00001161 +00000-0 +37797-3 0  9992
2 30297 098.7578 206.5105 0529301 178.1936 309.3151 13.82215720567406
Source of the keplerian elements: AFSPC